User: anonymous   Login
Location: ???????????
(38.2661°N, 23.2350°E)
Time: 05:21:56
(UTC+00:00)
Language:

CSL-04 Debris - Orbit

View from above orbital plane
View from above orbital plane
View from above satellite
View from above satellite

Ground track
Ground track

The orbit data is extracted from the following two-line orbital elements,

1 25733U 99025D   24060.56227835  .00000538  00000-0  28687-3 0  9995
2 25733  98.7894 106.0249 0015496  70.0368 290.2474 14.17433321281141
Epoch (UTC): 29 February 2024 13:29:40
Eccentricity: 0.0015496
inclination: 98.7894°
perigee height: 823 km
apogee height: 845 km
right ascension of ascending node: 106.0249°
argument of perigee: 70.0368°
revolutions per day: 14.17433321
mean anomaly at epoch: 290.2474°
orbit number at epoch: 28114

The dashed part of the orbit path shows where the satellite is in the earth's shadow,  

DLR